Weather History for Naples, FL

Change the Weather History Date:

Friday, January 27, 2012

  Actual Average Record
Temperature  
Mean Temperature 70 °F 65 °F  
Max Temperature 76 °F 75 °F 88 °F (2002)
Min Temperature 64 °F 55 °F 35 °F (1982)
Degree Days  
Heating Degree Days 0 3  
Month to date heating degree days 72 94  
Since 1 July heating degree days 97 172  
Cooling Degree Days 5 2  
Month to date cooling degree days 63 80  
Year to date cooling degree days 63 80  
Growing Degree Days 20 (Base 50)    
Moisture  
Dew Point 66 °F    
Average Humidity 85    
Maximum Humidity 100    
Minimum Humidity 69    
Precipitation  
Precipitation 0.15 in 0.07 in 2.40 in (1980)
Month to date precipitation 0.17 1.55  
Year to date precipitation 0.17 1.55  
Snow  
Snow 0.00 in - - ()
Month to date snowfall 0.0  
Since 1 July snowfall 0.0  
Snow Depth 0.00 in    
Sea Level Pressure  
Sea Level Pressure 30.03 in    
Wind  
Wind Speed 5 mph (SSW)    
Max Wind Speed 24 mph    
Max Gust Speed 32 mph    
Visibility 7 miles    
Events Fog , Rain    
T = Trace of Precipitation, MM = Missing Value Source: NWS Daily Summary

Daily Weather History Graph

Daily Weather History Graph

Search for Another Location

Airport:

Trip Planner

Search our weather history database for the weather conditions in past years. The results will help you decide how hot, cold, wet, or windy it might be!

Date:

Astronomy

Jan. 27, 2012 Rise Set
Actual Time 7:13 AM EST 6:06 PM EST
Civil Twilight 6:49 AM EST 6:30 PM EST
Nautical Twilight 6:21 AM EST 6:58 PM EST
Astronomical Twilight 5:53 AM EST 7:25 PM EST
Moon 9:39 AM EST (1/27) 10:20 PM EST (1/27)
Length of Visible Light 11h 41m
Length of Day
10h 52m
Waxing Crescent, 19% of the Moon is Illuminated
Jan 27
Waxing Crescent
Jan 30
First Quarter
Feb 7
Full
Feb 14
Last Quarter
Feb 21
New

Hourly Weather History & Observations

Time (EST) Temp. Dew Point Humidity Pressure Visibility Wind Dir Wind Speed Gust Speed Precip Events Conditions
12:41 AM 68.0 °F 64.4 °F 88% 30.00 in 10.0 mi SE 3.5 mph - N/A   Mostly Cloudy
12:53 AM 68.0 °F 64.9 °F 90% 30.00 in 10.0 mi SE 3.5 mph - N/A   Mostly Cloudy
1:51 AM 68.0 °F 66.2 °F 94% 29.99 in 10.0 mi SE 5.8 mph - N/A   Scattered Clouds
1:53 AM 68.0 °F 66.0 °F 93% 29.98 in 10.0 mi SE 5.8 mph - N/A   Partly Cloudy
2:53 AM 68.0 °F 66.0 °F 93% 29.98 in 9.0 mi SSE 6.9 mph - N/A   Clear
3:35 AM 71.6 °F 69.8 °F 94% 29.98 in 9.0 mi South 10.4 mph - N/A   Mostly Cloudy
3:53 AM 72.0 °F 69.1 °F 91% 29.97 in 9.0 mi South 9.2 mph - N/A   Overcast
4:27 AM 71.6 °F 69.8 °F 94% 29.99 in 8.0 mi South 8.1 mph - N/A   Overcast
4:53 AM 72.0 °F 69.1 °F 91% 29.99 in 8.0 mi SSE 8.1 mph - N/A   Overcast
5:07 AM 71.6 °F 69.8 °F 94% 30.00 in 8.0 mi South 8.1 mph - N/A   Overcast
5:20 AM 71.6 °F 69.8 °F 94% 30.00 in 8.0 mi SSE 8.1 mph - N/A   Overcast
5:53 AM 73.0 °F 70.0 °F 90% 30.01 in 8.0 mi South 5.8 mph - N/A   Mostly Cloudy
6:53 AM 73.0 °F 70.0 °F 90% 30.04 in 8.0 mi South 10.4 mph - N/A   Overcast
7:03 AM 71.6 °F 69.8 °F 94% 30.08 in 1.8 mi WSW 17.3 mph 32.2 mph 0.10 in Rain Light Rain
7:08 AM 66.2 °F 66.2 °F 100% 30.08 in 1.5 mi WSW 13.8 mph 32.2 mph 0.12 in Rain Rain
7:13 AM 66.2 °F 66.2 °F 100% 30.08 in 3.0 mi WSW 9.2 mph - 0.13 in Rain Light Rain
7:53 AM 66.2 °F 62.6 °F 88% 30.06 in 10.0 mi SW 5.8 mph - N/A   Overcast
8:53 AM 68.0 °F 63.7 °F 86% 30.04 in 9.0 mi SSE 5.8 mph - N/A   Mostly Cloudy
9:53 AM 70.0 °F 63.0 °F 78% 30.02 in 10.0 mi South 5.8 mph - 0.00 in   Mostly Cloudy
10:53 AM 73.4 °F 68.0 °F 83% 30.02 in 10.0 mi South 3.5 mph - N/A   Partly Cloudy
11:53 AM 75.0 °F 64.9 °F 71% 30.04 in 10.0 mi SSW 10.4 mph - N/A   Mostly Cloudy
12:53 PM 73.9 °F 66.0 °F 76% 30.01 in 10.0 mi WNW 5.8 mph - N/A   Mostly Cloudy
1:53 PM 73.0 °F 66.0 °F 79% 30.00 in 10.0 mi WSW 6.9 mph - N/A   Mostly Cloudy
2:53 PM 73.0 °F 66.0 °F 79% 29.99 in 10.0 mi WSW 6.9 mph - N/A   Overcast
3:01 PM 73.4 °F 66.2 °F 78% 30.00 in 10.0 mi WSW 6.9 mph - N/A   Overcast
3:51 PM 69.8 °F 68.0 °F 94% 30.01 in 2.0 mi SW 6.9 mph - 0.02 in Rain Light Rain
3:53 PM 70.0 °F 68.0 °F 93% 30.01 in 2.5 mi WSW 5.8 mph - 0.02 in Rain Light Rain
4:00 PM 69.8 °F 68.0 °F 94% 30.00 in 7.0 mi WSW 3.5 mph - 0.00 in Rain Light Rain
4:24 PM 71.6 °F - N/A% 30.01 in 10.0 mi West 5.8 mph - 0.00 in   Overcast
4:53 PM 71.1 °F 65.1 °F 81% 30.01 in 10.0 mi West 4.6 mph - 0.00 in   Mostly Cloudy
5:53 PM 71.1 °F 65.5 °F 82% 30.01 in 10.0 mi West 4.6 mph - N/A   Mostly Cloudy
6:53 PM 69.8 °F 66.2 °F 88% 30.03 in 10.0 mi Calm Calm - N/A   Scattered Clouds
7:53 PM 68.0 °F 66.0 °F 93% 30.05 in 10.0 mi Calm Calm - N/A   Clear
8:53 PM 66.9 °F 66.0 °F 97% 30.06 in 8.0 mi Calm Calm - N/A   Clear
9:49 PM 66.2 °F 66.2 °F 100% 30.07 in 2.5 mi Calm Calm - N/A   Clear
9:53 PM 66.0 °F 66.0 °F 100% 30.06 in 4.0 mi Calm Calm - N/A   Clear
10:40 PM 66.2 °F 64.4 °F 94% 30.07 in 1.5 mi Calm Calm - N/A   Partly Cloudy
10:43 PM 64.4 °F 64.4 °F 100% 30.07 in 0.8 mi Calm Calm - N/A   Mist
10:51 PM 64.4 °F 64.4 °F 100% 30.07 in 0.2 mi Calm Calm - N/A Fog Fog
10:53 PM 64.9 °F 64.9 °F 100% 30.07 in 0.2 mi Calm Calm - N/A Fog Fog
11:08 PM 64.4 °F 64.4 °F 100% 30.07 in 0.5 mi Calm Calm - N/A Fog Fog
11:32 PM 64.4 °F 64.4 °F 100% 30.07 in 0.2 mi Calm Calm - N/A Fog Fog
11:53 PM 64.0 °F 64.0 °F 100% 30.06 in 0.2 mi Calm Calm - N/A Fog Fog